This demonstration page uses our WeatherBlox Daily Observations layout. Learn more.

Left ArrowRight Arrow

39.29038, -76.61219

Hourly Observations for September 25, 2021

Temp ( °F °C ) Dew Point ( °F °C ) Humidity (%) Winds ( mph kmh ) Pressure ( in mb ) Visibility ( mi km ) Precip ( " mm )
12:54 am 00:54 Mostly Clear 55 12.8 51 10.6 87 87 W 3 6 30.08 1019 10 16 N/A
1:54 am 01:54 Mostly Clear 54 12.2 51 10.6 90 90 N N/A 30.07 1018 10 16 N/A
2:54 am 02:54 Clear 54 12.2 50 10 87 87 WNW 3 6 30.07 1018 10 16 N/A
3:54 am 03:54 Mostly Clear 53 11.7 50 10 89 89 N N/A 30.06 1018 10 16 N/A
4:54 am 04:54 Mostly Clear 53 11.7 50 10 89 89 W 3 6 30.06 1018 10 16 N/A
5:54 am 05:54 Mostly Clear 52 11.1 49 9.4 89 89 N N/A 30.06 1018 10 16 N/A
6:54 am 06:54 Mostly Clear 50 10 48 8.9 93 93 N N/A 30.07 1018 10 16 N/A
7:54 am 07:54 Mostly Sunny 54 12.2 51 10.6 90 90 N N/A 30.07 1018 10 16 N/A
8:54 am 08:54 Mostly Sunny 61 16.1 53 11.7 75 75 N N/A 30.07 1018 10 16 N/A
9:54 am 09:54 Mostly Sunny 68 20 52 11.1 57 57 N N/A 30.06 1018 10 16 N/A
10:54 am 10:54 Partly Cloudy 73 22.8 50 10 44 44 W 7 11 30.06 1018 10 16 N/A
11:54 am 11:54 Partly Cloudy 75 23.9 51 10.6 43 43 N N/A 30.04 1017 10 16 N/A
12:54 pm 12:54 Partly Cloudy 77 25 50 10 39 39 N N/A 30.02 1017 10 16 N/A
1:54 pm 13:54 Mostly Cloudy 76 24.4 49 9.4 39 39 S 7 11 29.99 1016 10 16 N/A
2:54 pm 14:54 Mostly Cloudy 76 24.4 51 10.6 42 42 W 7 11 29.97 1015 10 16 N/A
3:54 pm 15:54 Mostly Cloudy 76 24.4 50 10 40 40 N N/A 29.95 1014 10 16 N/A
4:54 pm 16:54 Mostly Cloudy 76 24.4 51 10.6 42 42 W 7 11 29.94 1014 10 16 N/A
5:54 pm 17:54 Mostly Cloudy 71 21.7 51 10.6 49 49 W 3 6 29.94 1014 10 16 N/A
6:54 pm 18:54 Mostly Cloudy 72 22.2 52 11.1 50 50 N N/A 29.93 1014 10 16 N/A
7:54 pm 19:54 Mostly Cloudy 66 18.9 53 11.7 63 63 N N/A 29.92 1013 10 16 N/A
8:54 pm 20:54 Mostly Clear 62 16.7 55 12.8 78 78 SW 3 6 29.93 1014 10 16 N/A
9:54 pm 21:54 Partly Cloudy 60 15.6 55 12.8 84 84 WSW 3 6 29.94 1014 10 16 N/A
10:54 pm 22:54 Mostly Cloudy 58 14.4 54 12.2 87 87 WSW 5 7 29.94 1014 10 16 N/A
11:54 pm 23:54 Mostly Cloudy 60 15.6 54 12.2 80 80 W 6 9 29.94 1014 10 16 N/A

Powered by AerisWeather